This is the latest recevied weather packets stored in our database for station/object DL9NEE-10. If no packets are shown the sender has not sent any weather packets the latest 10 day(s).
| Time | Temp. | Humidity | Pressure | Rain* | Wind** | Luminosity | Snow |
|---|---|---|---|---|---|---|---|
| 1777682106 | 12.78° C | 51% | 1025.6 hPa | - | - | - | - |
| 1777681206 | 13.33° C | 51% | 1025.7 hPa | - | - | - | - |
| 1777680306 | 13.89° C | 50% | 1025.6 hPa | - | - | - | - |
| 1777679405 | 13.89° C | 49% | 1025.7 hPa | - | - | - | - |
| 1777678505 | 14.44° C | 49% | 1025.9 hPa | - | - | - | - |
| 1777677605 | 14.44° C | 48% | 1025.9 hPa | - | - | - | - |
| 1777676705 | 15° C | 48% | 1025.8 hPa | - | - | - | - |
| 1777675805 | 15° C | 47% | 1025.9 hPa | - | - | - | - |
| 1777674905 | 15.56° C | 47% | 1025.9 hPa | - | - | - | - |
| 1777674005 | 15.56° C | 46% | 1025.9 hPa | - | - | - | - |
| 1777673105 | 16.11° C | 45% | 1025.9 hPa | - | - | - | - |
| 1777672204 | 16.67° C | 45% | 1025.9 hPa | - | - | - | - |
| 1777671304 | 17.22° C | 44% | 1025.9 hPa | - | - | - | - |
| 1777670404 | 17.22° C | 43% | 1025.9 hPa | - | - | - | - |
| 1777669504 | 17.78° C | 42% | 1025.8 hPa | - | - | - | - |
| 1777668604 | 18.33° C | 42% | 1025.9 hPa | - | - | - | - |
| 1777667704 | 18.33° C | 40% | 1025.9 hPa | - | - | - | - |
| 1777666804 | 18.89° C | 40% | 1026 hPa | - | - | - | - |
| 1777665903 | 19.44° C | 40% | 1025.9 hPa | - | - | - | - |
| 1777665003 | 19.44° C | 39% | 1025.8 hPa | - | - | - | - |
| 1777664103 | 20° C | 38% | 1025.7 hPa | - | - | - | - |
| 1777663203 | 20.56° C | 37% | 1025.8 hPa | - | - | - | - |
| 1777662303 | 21.11° C | 37% | 1025.8 hPa | - | - | - | - |
| 1777661403 | 21.67° C | 36% | 1025.8 hPa | - | - | - | - |
| 1777660503 | 21.67° C | 36% | 1025.6 hPa | - | - | - | - |
* Rain since midnight (hover to see other rain measurements)
** Current wind speed in m/s (hover to see current wind gust speed)